Time,TemperatureF,DewpointF,PressureIn,WindDirection,WindDirectionDegrees,WindSpeedMPH,WindSpeedGustMPH,Humidity,HourlyPrecipIn,Conditions,Clouds,dailyrainin,SoftwareType,DateUTC
2013-09-09 00:11:00,75.6,73.0,29.98,East,98,0.0,1.0,92,0.00,,,0.00,weatherlink.com 1.10,2013-09-09 04:11:00,
2013-09-09 00:28:00,74.9,73.0,29.98,East,99,0.0,0.0,94,0.00,,,0.00,weatherlink.com 1.10,2013-09-09 04:28:00,
2013-09-09 00:44:00,74.4,73.0,29.98,East,99,0.0,0.0,94,0.00,,,0.00,weatherlink.com 1.10,2013-09-09 04:44:00,
2013-09-09 01:01:00,74.1,73.0,29.98,East,99,0.0,0.0,95,0.00,,,0.00,weatherlink.com 1.10,2013-09-09 05:01:00,
2013-09-09 01:17:00,73.9,73.0,29.98,East,99,0.0,0.0,96,0.00,,,0.00,weatherlink.com 1.10,2013-09-09 05:17:00,
2013-09-09 01:33:00,73.5,72.0,29.98,East,99,0.0,0.0,96,0.00,,,0.00,weatherlink.com 1.10,2013-09-09 05:33:00,
2013-09-09 01:49:00,73.4,72.0,29.98,East,98,0.0,0.0,96,0.00,,,0.00,weatherlink.com 1.10,2013-09-09 05:49:00,
2013-09-09 02:06:00,73.2,72.0,29.97,East,98,0.0,0.0,96,0.00,,,0.00,weatherlink.com 1.10,2013-09-09 06:06:00,
2013-09-09 02:22:00,72.9,72.0,29.96,East,99,0.0,0.0,96,0.00,,,0.00,weatherlink.com 1.10,2013-09-09 06:22:00,
2013-09-09 02:38:00,72.8,72.0,29.96,East,99,0.0,0.0,97,0.00,,,0.00,weatherlink.com 1.10,2013-09-09 06:38:00,
2013-09-09 02:54:00,72.7,72.0,29.96,East,98,0.0,0.0,97,0.00,,,0.00,weatherlink.com 1.10,2013-09-09 06:54:00,
2013-09-09 03:11:00,72.5,72.0,29.96,East,99,0.0,0.0,97,0.00,,,0.00,weatherlink.com 1.10,2013-09-09 07:11:00,
2013-09-09 03:27:00,72.6,72.0,29.96,East,99,0.0,0.0,97,0.00,,,0.00,weatherlink.com 1.10,2013-09-09 07:27:00,
2013-09-09 03:43:00,72.6,72.0,29.96,East,99,0.0,0.0,97,0.00,,,0.00,weatherlink.com 1.10,2013-09-09 07:43:00,
2013-09-09 03:59:00,72.3,71.0,29.95,East,98,0.0,0.0,97,0.00,,,0.00,weatherlink.com 1.10,2013-09-09 07:59:00,
2013-09-09 04:16:00,72.5,72.0,29.95,East,98,0.0,0.0,98,0.00,,,0.00,weatherlink.com 1.10,2013-09-09 08:16:00,
2013-09-09 04:32:00,73.5,73.0,29.95,East,100,0.0,1.0,98,0.00,,,0.00,weatherlink.com 1.10,2013-09-09 08:32:00,
2013-09-09 04:48:00,73.1,72.0,29.95,East,99,0.0,0.0,97,0.00,,,0.00,weatherlink.com 1.10,2013-09-09 08:48:00,
2013-09-09 05:05:00,73.3,73.0,29.95,East,99,0.0,1.0,98,0.00,,,0.00,weatherlink.com 1.10,2013-09-09 09:05:00,
2013-09-09 05:21:00,73.5,73.0,29.96,East,98,0.0,1.0,97,0.00,,,0.00,weatherlink.com 1.10,2013-09-09 09:21:00,
2013-09-09 05:37:00,73.2,72.0,29.96,East,99,0.0,1.0,97,0.00,,,0.00,weatherlink.com 1.10,2013-09-09 09:37:00,
2013-09-09 05:53:00,73.2,72.0,29.97,East,99,0.0,1.0,97,0.00,,,0.00,weatherlink.com 1.10,2013-09-09 09:53:00,
2013-09-09 06:10:00,73.1,73.0,29.97,East,99,0.0,1.0,98,0.00,,,0.00,weatherlink.com 1.10,2013-09-09 10:10:00,
2013-09-09 06:26:00,73.5,73.0,29.98,East,100,0.0,1.0,98,0.00,,,0.00,weatherlink.com 1.10,2013-09-09 10:26:00,
2013-09-09 06:43:00,73.4,73.0,29.98,ESE,105,0.0,1.0,98,0.00,,,0.00,weatherlink.com 1.10,2013-09-09 10:43:00,
2013-09-09 06:59:00,73.6,73.0,29.98,ESE,106,2.0,3.0,98,0.00,,,0.00,weatherlink.com 1.10,2013-09-09 10:59:00,
2013-09-09 07:16:00,73.4,73.0,29.99,ESE,105,0.0,2.0,98,0.00,,,0.00,weatherlink.com 1.10,2013-09-09 11:16:00,
2013-09-09 07:32:00,73.3,72.0,29.99,ESE,106,0.0,2.0,97,0.00,,,0.00,weatherlink.com 1.10,2013-09-09 11:32:00,
2013-09-09 07:48:00,73.5,73.0,29.99,ESE,112,0.0,4.0,98,0.00,,,0.00,weatherlink.com 1.10,2013-09-09 11:48:00,
2013-09-09 08:04:00,74.0,73.0,30.00,ESE,106,1.0,3.0,98,0.00,,,0.00,weatherlink.com 1.10,2013-09-09 12:04:00,
2013-09-09 08:21:00,74.7,73.0,30.00,ESE,105,2.0,4.0,96,0.00,,,0.00,weatherlink.com 1.10,2013-09-09 12:21:00,
2013-09-09 08:37:00,75.9,74.0,30.00,ESE,107,2.0,4.0,95,0.00,,,0.00,weatherlink.com 1.10,2013-09-09 12:37:00,
2013-09-09 08:53:00,77.7,75.0,30.01,ESE,117,1.0,6.0,91,0.00,,,0.00,weatherlink.com 1.10,2013-09-09 12:53:00,
2013-09-09 09:10:00,79.6,76.0,30.01,East,99,2.0,5.0,89,0.00,,,0.00,weatherlink.com 1.10,2013-09-09 13:10:00,
2013-09-09 09:27:00,80.7,76.0,30.01,ESE,108,3.0,7.0,86,0.00,,,0.00,weatherlink.com 1.10,2013-09-09 13:27:00,
2013-09-09 09:43:00,82.2,77.0,30.02,ESE,103,4.0,4.0,83,0.00,,,0.00,weatherlink.com 1.10,2013-09-09 13:43:00,
2013-09-09 09:59:00,82.6,76.0,30.02,ESE,103,2.0,7.0,81,0.00,,,0.00,weatherlink.com 1.10,2013-09-09 13:59:00,
2013-09-09 10:16:00,83.3,76.0,30.02,ESE,106,3.0,5.0,78,0.00,,,0.00,weatherlink.com 1.10,2013-09-09 14:16:00,
2013-09-09 10:33:00,83.8,76.0,30.03,ESE,115,4.0,5.0,78,0.00,,,0.00,weatherlink.com 1.10,2013-09-09 14:33:00,
2013-09-09 10:49:00,85.0,77.0,30.03,ESE,108,1.0,7.0,77,0.00,,,0.00,weatherlink.com 1.10,2013-09-09 14:49:00,
2013-09-09 11:06:00,87.4,76.0,30.03,ESE,122,6.0,6.0,69,0.00,,,0.00,weatherlink.com 1.10,2013-09-09 15:06:00,
2013-09-09 11:22:00,88.5,76.0,30.03,NW,315,3.0,3.0,67,0.00,,,0.00,weatherlink.com 1.10,2013-09-09 15:22:00,
2013-09-09 11:39:00,87.5,77.0,30.03,NE,53,1.0,4.0,71,0.00,,,0.00,weatherlink.com 1.10,2013-09-09 15:39:00,
2013-09-09 11:55:00,88.7,75.0,30.03,East,101,1.0,3.0,65,0.00,,,0.00,weatherlink.com 1.10,2013-09-09 15:55:00,
2013-09-09 12:12:00,87.9,76.0,30.02,ESE,102,1.0,6.0,69,0.00,,,0.00,weatherlink.com 1.10,2013-09-09 16:12:00,
2013-09-09 12:28:00,87.0,75.0,30.03,East,101,4.0,7.0,68,0.00,,,0.00,weatherlink.com 1.10,2013-09-09 16:28:00,
2013-09-09 12:44:00,89.0,75.0,30.02,East,99,2.0,5.0,63,0.00,,,0.00,weatherlink.com 1.10,2013-09-09 16:44:00,
2013-09-09 13:00:00,88.1,74.0,30.02,East,99,2.0,8.0,64,0.00,,,0.00,weatherlink.com 1.10,2013-09-09 17:00:00,
2013-09-09 13:17:00,90.0,73.0,30.02,ESE,102,0.0,7.0,58,0.00,,,0.00,weatherlink.com 1.10,2013-09-09 17:17:00,
2013-09-09 13:33:00,88.5,72.0,30.02,ESE,111,0.0,9.0,59,0.00,,,0.00,weatherlink.com 1.10,2013-09-09 17:33:00,
2013-09-09 13:49:00,90.2,73.0,30.01,East,101,0.0,3.0,57,0.00,,,0.00,weatherlink.com 1.10,2013-09-09 17:49:00,
2013-09-09 14:06:00,90.0,72.0,30.00,ESE,108,5.0,5.0,55,0.00,,,0.00,weatherlink.com 1.10,2013-09-09 18:06:00,
2013-09-09 14:22:00,91.3,75.0,30.00,ENE,70,1.0,4.0,60,0.00,,,0.00,weatherlink.com 1.10,2013-09-09 18:22:00,
2013-09-09 14:39:00,90.1,72.0,29.99,SE,127,4.0,7.0,56,0.00,,,0.00,weatherlink.com 1.10,2013-09-09 18:39:00,
2013-09-09 14:55:00,88.7,72.0,29.99,ESE,103,0.0,4.0,58,0.00,,,0.00,weatherlink.com 1.10,2013-09-09 18:55:00,
2013-09-09 15:11:00,89.6,71.0,29.99,ESE,102,1.0,6.0,55,0.00,,,0.00,weatherlink.com 1.10,2013-09-09 19:11:00,
2013-09-09 15:28:00,89.1,70.0,29.98,East,89,1.0,5.0,53,0.00,,,0.00,weatherlink.com 1.10,2013-09-09 19:28:00,
2013-09-09 15:44:00,89.2,68.0,29.98,SSE,157,2.0,7.0,49,0.00,,,0.00,weatherlink.com 1.10,2013-09-09 19:44:00,
2013-09-09 16:00:00,90.5,70.0,29.98,NE,53,1.0,4.0,51,0.00,,,0.00,weatherlink.com 1.10,2013-09-09 20:00:00,
2013-09-09 16:16:00,90.1,68.0,29.98,ESE,117,1.0,6.0,48,0.00,,,0.00,weatherlink.com 1.10,2013-09-09 20:16:00,
2013-09-09 16:33:00,89.4,67.0,29.98,SE,137,5.0,8.0,48,0.00,,,0.00,weatherlink.com 1.10,2013-09-09 20:33:00,
2013-09-09 16:49:00,89.4,69.0,29.98,SE,135,2.0,6.0,52,0.00,,,0.00,weatherlink.com 1.10,2013-09-09 20:49:00,
2013-09-09 17:05:00,89.2,68.0,29.97,ESE,107,1.0,4.0,49,0.00,,,0.00,weatherlink.com 1.10,2013-09-09 21:05:00,
2013-09-09 17:22:00,89.1,69.0,29.97,ESE,120,0.0,4.0,52,0.00,,,0.00,weatherlink.com 1.10,2013-09-09 21:22:00,
2013-09-09 17:38:00,88.8,70.0,29.97,ESE,111,3.0,5.0,54,0.00,,,0.00,weatherlink.com 1.10,2013-09-09 21:38:00,
2013-09-09 17:54:00,87.8,72.0,29.97,East,98,2.0,5.0,59,0.00,,,0.00,weatherlink.com 1.10,2013-09-09 21:54:00,
2013-09-09 18:11:00,87.1,73.0,29.98,ESE,113,6.0,6.0,63,0.00,,,0.00,weatherlink.com 1.10,2013-09-09 22:11:00,
2013-09-09 18:27:00,86.7,73.0,29.97,ESE,102,1.0,3.0,63,0.00,,,0.00,weatherlink.com 1.10,2013-09-09 22:27:00,
2013-09-09 18:43:00,85.8,74.0,29.98,SE,133,2.0,7.0,67,0.00,,,0.00,weatherlink.com 1.10,2013-09-09 22:43:00,
2013-09-09 18:59:00,84.8,74.0,29.98,SE,124,1.0,4.0,70,0.00,,,0.00,weatherlink.com 1.10,2013-09-09 22:59:00,
2013-09-09 19:16:00,83.7,73.0,29.99,East,96,2.0,8.0,71,0.00,,,0.00,weatherlink.com 1.10,2013-09-09 23:16:00,
2013-09-09 19:32:00,82.7,73.0,29.99,East,97,1.0,8.0,73,0.00,,,0.00,weatherlink.com 1.10,2013-09-09 23:32:00,
2013-09-09 19:48:00,81.7,73.0,30.00,East,86,0.0,3.0,75,0.00,,,0.00,weatherlink.com 1.10,2013-09-09 23:48:00,
2013-09-09 20:04:00,81.1,73.0,30.01,East,101,0.0,5.0,76,0.00,,,0.00,weatherlink.com 1.10,2013-09-10 00:04:00,
2013-09-09 20:21:00,80.6,73.0,30.01,ESE,103,1.0,3.0,78,0.00,,,0.00,weatherlink.com 1.10,2013-09-10 00:21:00,
2013-09-09 20:37:00,80.2,73.0,30.02,ESE,123,1.0,4.0,80,0.00,,,0.00,weatherlink.com 1.10,2013-09-10 00:37:00,
2013-09-09 20:53:00,79.9,73.0,30.02,ESE,118,3.0,5.0,80,0.00,,,0.00,weatherlink.com 1.10,2013-09-10 00:53:00,
2013-09-09 21:09:00,79.5,74.0,30.02,ESE,105,2.0,4.0,82,0.00,,,0.00,weatherlink.com 1.10,2013-09-10 01:09:00,
2013-09-09 21:26:00,79.1,73.0,30.03,East,90,0.0,4.0,83,0.00,,,0.00,weatherlink.com 1.10,2013-09-10 01:26:00,
2013-09-09 21:42:00,78.5,74.0,30.03,East,94,0.0,1.0,85,0.00,,,0.00,weatherlink.com 1.10,2013-09-10 01:42:00,
2013-09-09 21:58:00,77.8,74.0,30.04,East,86,0.0,1.0,87,0.00,,,0.00,weatherlink.com 1.10,2013-09-10 01:58:00,
2013-09-09 22:14:00,77.4,74.0,30.05,East,85,0.0,1.0,88,0.00,,,0.00,weatherlink.com 1.10,2013-09-10 02:14:00,
2013-09-09 22:31:00,77.4,74.0,30.05,East,94,0.0,1.0,90,0.00,,,0.00,weatherlink.com 1.10,2013-09-10 02:31:00,
2013-09-09 22:47:00,77.2,74.0,30.05,East,86,0.0,2.0,89,0.00,,,0.00,weatherlink.com 1.10,2013-09-10 02:47:00,
2013-09-09 23:03:00,77.1,74.0,30.05,East,91,0.0,2.0,90,0.00,,,0.00,weatherlink.com 1.10,2013-09-10 03:03:00,
2013-09-09 23:19:00,76.9,73.0,30.05,East,94,0.0,1.0,89,0.00,,,0.00,weatherlink.com 1.10,2013-09-10 03:19:00,
2013-09-09 23:36:00,76.8,74.0,30.05,ENE,65,0.0,2.0,90,0.00,,,0.00,weatherlink.com 1.10,2013-09-10 03:36:00,
2013-09-09 23:52:00,76.5,73.0,30.05,East,91,0.0,1.0,90,0.00,,,0.00,weatherlink.com 1.10,2013-09-10 03:52:00,